Thessaloniki, Greece

5:38 PM EET on November 18, 2017 (GMT +0200)
Makedonia

Weather History for LGTS - September, 2017

Change the Weather History Date:

Thursday, September 14, 2017

  Actual Average Record
Temperature  
Mean Temperature 74 °F -  
Max Temperature 86 °F 76 °F 93 °F (2011)
Min Temperature 62 °F 55 °F 55 °F (2003)
Cooling Degree Days 9    
Growing Degree Days 24 (Base 50)    
Moisture  
Dew Point 57 °F    
Average Humidity 55    
Maximum Humidity 78    
Minimum Humidity 24    
Precipitation  
Precipitation 0.00 in 0.04 in - ()
Sea Level Pressure  
Sea Level Pressure 29.97 in    
Wind  
Wind Speed 5 mph ()    
Max Wind Speed 13 mph    
Max Gust Speed -    
Visibility 6.2 miles    
Events      
Averages and records for this station are not official NWS values.
T = Trace of Precipitation, MM = Missing Value Source: Averaged Metar Reports

Daily Weather History Graph

Daily Weather History Graph

Search for Another Location

Airport or City:

Trip Planner

Search our weather history database for the weather conditions in past years. The results will help you decide how hot, cold, wet, or windy it might be!

Date:

Astronomy

Sep. 14, 2017 Rise Set
Actual Time 7:07 AM EEST 7:38 PM EEST
Civil Twilight 6:40 AM EEST 8:06 PM EEST
Nautical Twilight 6:08 AM EEST 8:38 PM EEST
Astronomical Twilight 5:34 AM EEST 9:11 PM EEST
Moon 12:46 AM EEST (9/14) 3:38 PM EEST (9/14)
Length of Visible Light 13h 25m
Length of Day
12h 30m
Last Quarter, 38% of the Moon is Illuminated
Sep 14
Last Quarter
Sep 20
New
Sep 28
First Quarter
Oct 5
Full
Oct 12
Last Quarter

Hourly Weather History & Observations

Time (EEST) Temp. Heat Index Dew Point Humidity Pressure Visibility Wind Dir Wind Speed Gust Speed Precip Events Conditions
12:00 AM 69 °F - 53 °F 46% 30.01 in 6 mi ESE 4.6 mph - -  
12:20 AM 68.0 °F - 53.6 °F 60% 30.01 in - ESE 4.6 mph - N/A   Clear
12:50 AM 66.2 °F - 51.8 °F 60% 30.01 in - Variable 3.5 mph - N/A   Clear
1:20 AM 68.0 °F - 51.8 °F 56% 30.01 in - Variable 3.5 mph - N/A   Clear
1:50 AM 66.2 °F - 51.8 °F 60% 30.01 in - Variable 2.3 mph - N/A   Clear
2:20 AM 64.4 °F - 51.8 °F 64% 30.01 in - Variable 2.3 mph - N/A   Clear
2:50 AM 66.2 °F - 53.6 °F 64% 30.01 in - Variable 2.3 mph - N/A   Clear
3:00 AM 66 °F - 53 °F 53% 30.01 in 6 mi 2.3 mph - -  
3:20 AM 64.4 °F - 53.6 °F 68% 30.01 in - Variable 2.3 mph - N/A   Clear
3:50 AM 62.6 °F - 53.6 °F 72% 30.01 in - ESE 5.8 mph - N/A   Clear
4:20 AM 66.2 °F - 53.6 °F 64% 29.98 in 6.2 mi Variable 2.3 mph - N/A   Partly Cloudy
4:50 AM 62.6 °F - 53.6 °F 72% 29.98 in 6.2 mi Variable 2.3 mph - N/A   Partly Cloudy
5:20 AM 64.4 °F - 53.6 °F 68% 30.01 in 6.2 mi Variable 2.3 mph - N/A   Partly Cloudy
5:50 AM 62.6 °F - 53.6 °F 72% 30.01 in 6.2 mi ESE 4.6 mph - N/A   Partly Cloudy
6:50 AM 62.6 °F - 53.6 °F 72% 30.01 in 6.2 mi Variable 3.5 mph - N/A   Partly Cloudy
7:20 AM 62.6 °F - 53.6 °F 72% 30.01 in 6.2 mi ESE 4.6 mph - N/A   Partly Cloudy
7:50 AM 64.4 °F - 55.4 °F 73% 30.01 in 6.2 mi ESE 4.6 mph - N/A   Partly Cloudy
8:20 AM 68.0 °F - 55.4 °F 64% 30.01 in 6.2 mi Variable 3.5 mph - N/A   Partly Cloudy
8:50 AM 71.6 °F - 55.4 °F 57% 30.01 in 6.2 mi Variable 2.3 mph - N/A   Partly Cloudy
9:00 AM 71 °F - 56 °F 50% 30.03 in 6 mi 2.3 mph - -   Scattered Clouds
9:20 AM 73.4 °F - 57.2 °F 57% 30.01 in 6.2 mi Variable 2.3 mph - N/A   Partly Cloudy
9:50 AM 73.4 °F - 57.2 °F 57% 30.01 in 6.2 mi WSW 4.6 mph - N/A   Partly Cloudy
10:20 AM 77.0 °F - 59.0 °F 54% 30.04 in 6.2 mi West 4.6 mph - N/A   Partly Cloudy
10:50 AM 77.0 °F - 59.0 °F 54% 30.01 in 6.2 mi West 4.6 mph - N/A   Partly Cloudy
11:20 AM 78.8 °F - 59.0 °F 51% 30.01 in 6.2 mi West 5.8 mph - N/A   Partly Cloudy
11:50 AM 80.6 °F 80.8 °F 57.2 °F 45% 30.01 in 6.2 mi West 4.6 mph - N/A   Partly Cloudy
12:00 PM 80 °F - 57 °F 35% 30.03 in 6 mi West 4.6 mph - -   Scattered Clouds
12:20 PM 82.4 °F 82.5 °F 59.0 °F 45% 30.01 in 6.2 mi NW 6.9 mph - N/A   Partly Cloudy
12:50 PM 84.2 °F 83.0 °F 55.4 °F 37% 30.01 in 6.2 mi West 8.1 mph - N/A   Partly Cloudy
1:20 PM 86.0 °F 84.9 °F 57.2 °F 37% 29.98 in 6.2 mi West 8.1 mph - N/A   Partly Cloudy
1:50 PM 86.0 °F 84.9 °F 57.2 °F 37% 29.98 in 6.2 mi West 9.2 mph - N/A   Partly Cloudy
2:20 PM 86.0 °F 84.5 °F 55.4 °F 35% 29.95 in 6.2 mi West 10.4 mph - N/A   Partly Cloudy
2:50 PM 86.0 °F 84.5 °F 55.4 °F 35% 29.95 in 6.2 mi West 10.4 mph - N/A   Partly Cloudy
3:00 PM 87 °F - 55 °F 24% 29.96 in 6 mi West 10.4 mph - -   Scattered Clouds
3:20 PM 86.0 °F 84.9 °F 57.2 °F 37% 29.95 in 6.2 mi West 10.4 mph - N/A   Partly Cloudy
3:50 PM 86.0 °F 85.4 °F 59.0 °F 40% 29.92 in 6.2 mi West 9.2 mph - N/A   Partly Cloudy
4:20 PM 87.8 °F 86.1 °F 55.4 °F 33% 29.92 in 6.2 mi South 9.2 mph - N/A   Partly Cloudy
5:20 PM 86.0 °F 84.9 °F 57.2 °F 37% 29.89 in 6.2 mi South 11.5 mph - N/A   Partly Cloudy
5:50 PM 84.2 °F 83.8 °F 59.0 °F 42% 29.89 in 6.2 mi South 12.7 mph - N/A   Partly Cloudy
6:00 PM 85 °F - 58 °F 30% 29.91 in 6 mi South 12.7 mph - -   Scattered Clouds
6:20 PM 84.2 °F 83.5 °F 57.2 °F 40% 29.89 in - South 12.7 mph - N/A   Clear
6:50 PM 82.4 °F 82.0 °F 57.2 °F 42% 29.89 in - South 12.7 mph - N/A   Clear
7:20 PM 80.6 °F 81.5 °F 60.8 °F 51% 29.89 in - South 11.5 mph - N/A   Clear
7:50 PM 78.8 °F - 62.6 °F 57% 29.89 in - SSE 9.2 mph - N/A   Clear
8:20 PM 77.0 °F - 64.4 °F 65% 29.89 in - SSE 6.9 mph - N/A   Clear
8:50 PM 75.2 °F - 64.4 °F 69% 29.89 in - Variable 3.5 mph - N/A   Clear
9:00 PM 76 °F - 64 °F 57% 29.91 in 6 mi 3.5 mph - -  
9:20 PM 75.2 °F - 62.6 °F 65% 29.92 in 6.2 mi SE 5.8 mph - N/A   Partly Cloudy
9:50 PM 75.2 °F - 62.6 °F 65% 29.92 in 6.2 mi Variable 3.5 mph - N/A   Partly Cloudy
10:20 PM 71.6 °F - 62.6 °F 73% 29.92 in 6.2 mi Variable 2.3 mph - N/A   Partly Cloudy
10:50 PM 69.8 °F - 62.6 °F 78% 29.92 in 6.2 mi Variable 3.5 mph - N/A   Partly Cloudy
11:20 PM 69.8 °F - 60.8 °F 73% 29.92 in 6.2 mi ESE 4.6 mph - N/A   Partly Cloudy
11:50 PM 68.0 °F - 60.8 °F 78% 29.89 in 6.2 mi Variable 3.5 mph - N/A   Partly Cloudy